Regional Weather Roundup
Issued by NWS Kansas City/Pleasant Hill, MO

Home | Current Version | Previous Version | Graphics & Text | Print | Product List | Glossary Off
Versions: 1 2 3 4 5 6 7 8 9 10 11 12 13 14 15 16 17 18 19 20 21 22 23 24 25 26 27 28 29 30 31 32 33 34 35 36 37 38 39 40 41 42 43 44 45 46 47 48 49 50

000
ASUS43 KEAX 300210
RWREAX

WEATHER ROUNDUP FOR EASTERN KANSAS AND NORTHWEST MISSOURI
NATIONAL WEATHER SERVICE KANSAS CITY/PLEASANT HILL MO
800 PM CST THU JAN 29 2015

KSZ040-057-103>105-MOZ028-029-037-043-300300-
...KANSAS CITY METROPOLITAN AREA...

CITY           SKY/WX    TMP DP  RH WIND       PRES   REMARKS
K.C. INTL      FAIR      32  24  72 N9        30.49R WCI  24
K.C. DOWNTOWN  CLEAR     36  25  64 NW3       30.50R
LEES SUMMIT    CLEAR     32  23  69 N6        30.49R WCI  26
OLATHE - IXD   CLEAR     33  25  72 NW10      30.50R WCI  25
OLATHE - OJC   FAIR      35  24  64 NW6       30.49R WCI  30
LAWRENCE       CLEAR     29  23  78 N6        30.52R WCI  23

$$

MOZ001>008-011>017-020>025-030>033-038>040-044>046-053-054-300300-
...NORTHERN AND CENTRAL MISSOURI...

CITY           SKY/WX    TMP DP  RH WIND       PRES   REMARKS
ST. JOSEPH     CLEAR     27  20  75 NW7       30.51R WCI  19
MOSBY            N/A     34  27  75 NW5       30.49S WCI  30
WARRENSBURG    CLOUDY    34  27  75 NW5       30.48R WCI  30
WHITEMAN AFB   CLOUDY    36  25  64 N10       30.47R WCI  29
CLINTON        CLOUDY    36  28  75 NW5       30.49R WCI  32
SEDALIA        CLOUDY    38  26  62 NW13      30.47R WCI  30
WARSAW         NOT AVBL
MARSHALL       CLOUDY    39  28  65 NW12      30.47R WCI  32
CHILLICOTHE      N/A     35  23  61 N8        30.48R WCI  29
MOBERLY        CLOUDY    36  25  64 NW15G24   30.43R WCI  26
KIRKSVILLE     MOCLDY    32  23  69 NW12G20   30.43R WCI  23

$$

MOZ041-047>049-056>058-063>065-088>090-097-300300-
...EASTERN AND SOUTHERN MISSOURI...

CITY           SKY/WX    TMP DP  RH WIND       PRES   REMARKS
ST. LOUIS INTL CLOUDY    38  27  64 NW15G22   30.39R WCI  29
SPIRIT OF STL  CLOUDY    38  27  64 NW15G23   30.40R WCI  29
COLUMBIA       CLOUDY    37  26  64 NW12      30.43R WCI  29
JEFFERSON CITY CLOUDY    39  26  59 NW12G18   30.45R WCI  32
MEXICO         CLOUDY    37  30  75 NW14G22   30.41R WCI  29
HANNIBAL       CLOUDY    36  23  60 NW16G22   30.41R WCI  26
ROLLA          CLOUDY    37  27  67 NW12      30.39R WCI  29
LEBANON        PTCLDY    36  27  69 NW8       30.43R WCI  29
OSAGE BEACH    CLOUDY    37  25  60 N12       30.45R WCI  30
SPRINGFIELD    CLEAR     32  26  78 NW10      30.43R WCI  24
BRANSON        CLOUDY    36  27  69 NW7       30.44R WCI  30
NEVADA         CLEAR     34  27  75 NW5       30.50R WCI  30
JOPLIN         FAIR      35  27  72 N6        30.48R WCI  30
WEST PLAINS    MOCLDY    38  27  64 NW8       30.39S WCI  32

$$

IAZ060-094-KSZ022-034>040-054-083-096-NEZ052-066-093-300300-
...KANSAS...SOUTHEAST NEBRASKA AND IOWA...

CITY           SKY/WX    TMP DP  RH WIND       PRES   REMARKS
TOPEKA         CLEAR     33  25  72 CALM      30.52R
MANHATTAN      CLEAR     29  23  78 CALM      30.52R
EMPORIA        CLEAR     33  26  75 N5        30.49R WCI  29
CHANUTE        CLEAR     35  27  72 N8        30.50R WCI  29
WICHITA        PTCLDY    41  25  53 N7        30.50R
OMAHA          CLEAR     31  23  72 N13       30.52R WCI  21
LINCOLN        CLEAR     25  20  81 N9        30.52S WCI  15
FALLS CITY     CLEAR     28  20  71 W5        30.50S WCI  23
LAMONI         CLOUDY    32  22  66 NW20G25   30.45R WCI  20
DES MOINES     MOCLDY    31  20  63 N15G23    30.47R WCI  20

$$



USA.gov is the U.S. government's official web portal to all federal, state and local government web resources and services.